�N����,����,����,����,����,�C��,���x,�~����,�S�V����,�ő�u�ԕ���,,,
,,,,,,,,,����,����,����,�N��
yyyy/mm/dd,hh:mm:ss,(16),16����,m/s,��,%,mm,KW/�u,(16),16����,m/s,Time
2013/5/1,1:00:00,293,���k��,1.7,0.9,99.1,0,0,270,��,2.5,55
2013/5/1,2:00:00,338,�k�k��,0.8,1,99.8,0,0,293,���k��,2.4,3
2013/5/1,3:00:00,315,�k��,1.3,0.9,99.3,0,0,293,���k��,2.5,46
2013/5/1,4:00:00,315,�k��,0.4,0.9,99.5,0.5,0,315,�k��,3.2,6
2013/5/1,5:00:00,360,�k,1.5,1.1,99.3,0,0.01,338,�k�k��,2.7,53
2013/5/1,6:00:00,23,�k�k��,1.9,1.6,97.4,0,0.08,23,�k�k��,3.9,29
2013/5/1,7:00:00,360,�k,1.7,2.3,95,0,0.11,360,�k,2.8,0
2013/5/1,8:00:00,23,�k�k��,2.5,3.3,88.7,0,0.2,360,�k,4.2,37
2013/5/1,9:00:00,45,�k��,2.8,3.3,84.9,0,0.2,68,���k��,5.5,24
2013/5/1,10:00:00,90,��,2.7,3.2,89.1,0,0.23,90,��,4.4,56
2013/5/1,11:00:00,90,��,1.8,3.5,87.2,0,0.15,90,��,3.7,0
2013/5/1,12:00:00,45,�k��,1.3,5,85.3,0,0.45,45,�k��,3.5,48
2013/5/1,13:00:00,90,��,4.1,4.1,81.6,0,0.37,90,��,5.6,59
2013/5/1,14:00:00,68,���k��,3.4,5.5,79.2,0,0.45,90,��,6.3,35
2013/5/1,15:00:00,90,��,3.5,5,79.1,0,0.45,90,��,5.6,8
2013/5/1,16:00:00,90,��,2.5,4.8,80.3,0,0.21,113,���쓌,4.5,11
2013/5/1,17:00:00,113,���쓌,1.9,4.3,80.9,0,0.13,90,��,3.7,46
2013/5/1,18:00:00,135,�쓌,0.4,3.8,84.4,0,0.05,158,��쓌,1.8,16
2013/5/1,19:00:00,360,�k,3.6,4.4,73.5,0,0.01,360,�k,7.8,47
2013/5/1,20:00:00,338,�k�k��,2.4,4.4,71.6,0,0,315,�k��,7.8,0
2013/5/1,21:00:00,293,���k��,2,3.9,77.3,0,0,338,�k�k��,4.3,30
2013/5/1,22:00:00,293,���k��,2.8,3.6,78,0,0,270,��,4.9,37
2013/5/1,23:00:00,360,�k,0.4,3.3,78.8,0,0,270,��,5.2,9
2013/5/1,0:00:00,45,�k��,1.5,2.6,84.5,0,0,45,�k��,2.2,54
2013/5/2,1:00:00,360,�k,1.7,2.9,81.7,0,0,360,�k,3.4,51
2013/5/2,2:00:00,248,���쐼,2.3,2.5,85.5,0,0,360,�k,3.8,24
2013/5/2,3:00:00,270,��,2.5,2.1,86.6,0,0,270,��,4.3,42
2013/5/2,4:00:00,293,���k��,1.6,1.8,84.1,0,0,338,�k�k��,3.4,13
2013/5/2,5:00:00,315,�k��,1.5,2,80.2,0,0.01,315,�k��,2.5,57
2013/5/2,6:00:00,270,��,1.6,2.6,80.6,0,0.05,293,���k��,3,14
2013/5/2,7:00:00,315,�k��,0.8,3.4,71.9,0,0.12,293,���k��,2.7,24
2013/5/2,8:00:00,270,��,2.3,4.3,70,0,0.18,293,���k��,4.1,35
2013/5/2,9:00:00,338,�k�k��,2.3,6.9,64.3,0,0.45,338,�k�k��,4.8,54
2013/5/2,10:00:00,113,���쓌,0.8,7.7,60.7,0,0.82,270,��,5.3,24
2013/5/2,11:00:00,135,�쓌,4.2,7.7,54.1,0,1.03,180,��,7.1,57
2013/5/2,12:00:00,180,��,4.5,6.9,64.2,0,0.84,180,��,9,39
2013/5/2,13:00:00,203,��쐼,4.3,4.9,70.8,0,0.34,225,�쐼,8.1,5
2013/5/2,14:00:00,180,��,3.1,4.6,76.2,0,0.22,180,��,7.4,18
2013/5/2,15:00:00,158,��쓌,2,4.5,79.7,0,0.26,180,��,5.5,4
2013/5/2,16:00:00,203,��쐼,0.9,3.9,78.6,0,0.13,180,��,3.9,4
2013/5/2,17:00:00,293,���k��,0.7,4.2,76.9,0,0.04,225,�쐼,2.3,22
2013/5/2,18:00:00,225,�쐼,1,4.4,78.6,0,0.03,248,���쐼,2.3,30
2013/5/2,19:00:00,248,���쐼,0.6,4.2,79.7,0,0.01,225,�쐼,3.7,51
2013/5/2,20:00:00,225,�쐼,1.6,4,81.6,0,0,225,�쐼,2.5,52
2013/5/2,21:00:00,248,���쐼,1.3,3.9,78.7,0,0,293,���k��,2.3,1
2013/5/2,22:00:00,135,�쓌,0.8,4.3,68.8,0,0,113,���쓌,2.9,48
2013/5/2,23:00:00,225,�쐼,0.8,4,72,0,0,23,�k�k��,2.8,1
2013/5/2,0:00:00,225,�쐼,2,3.4,79.1,0,0,203,��쐼,3.2,58
2013/5/3,1:00:00,225,�쐼,1.3,2.1,82.6,0,0,225,�쐼,4.3,12
2013/5/3,2:00:00,293,���k��,1.1,-0.7,93.7,0,0,293,���k��,1.8,0
2013/5/3,3:00:00,293,���k��,2.3,0.3,91.8,0,0,315,�k��,3.6,56
2013/5/3,4:00:00,270,��,1,-1.4,94.1,0,0,45,�k��,2.8,1
2013/5/3,5:00:00,270,��,0.6,-0.9,95.2,0,0.02,248,���쐼,2.4,56
2013/5/3,6:00:00,270,��,1.2,1.2,90.5,0,0.11,225,�쐼,2.3,9
2013/5/3,7:00:00,23,�k�k��,1.8,4.2,80,0,0.22,23,�k�k��,3.3,59
2013/5/3,8:00:00,248,���쐼,2,8.3,57,0,0.38,68,���k��,3.7,27
2013/5/3,9:00:00,113,���쓌,3.2,9.7,55.1,0,0.67,248,���쐼,5.6,32
2013/5/3,10:00:00,90,��,3.7,9.6,48.9,0,0.51,90,��,6.1,17
2013/5/3,11:00:00,248,���쐼,6.5,10,55.8,0,0.41,248,���쐼,12.3,41
2013/5/3,12:00:00,248,���쐼,7.6,9.4,56.4,0,0.39,248,���쐼,12.5,49
2013/5/3,13:00:00,248,���쐼,6.5,9.9,55.8,0,0.36,225,�쐼,12,4
2013/5/3,14:00:00,248,���쐼,5.7,10.9,55.4,0,0.4,248,���쐼,13.5,9
2013/5/3,15:00:00,270,��,7.5,11.9,48.3,0,0.58,293,���k��,14.6,59
2013/5/3,16:00:00,248,���쐼,6.2,11.7,51.9,0,0.57,270,��,14.3,5
2013/5/3,17:00:00,248,���쐼,5.5,10.1,59,0,0.29,248,���쐼,11.9,2
2013/5/3,18:00:00,248,���쐼,3.9,8.8,63.2,0,0.07,225,�쐼,7.4,27
2013/5/3,19:00:00,338,�k�k��,1.8,7.8,63.3,0,0.01,248,���쐼,5.6,0
2013/5/3,20:00:00,270,��,2.4,4.6,73.1,0,0,315,�k��,3.4,19
2013/5/3,21:00:00,270,��,2.8,3.2,73.5,0,0,248,���쐼,4.2,22
2013/5/3,22:00:00,248,���쐼,1.1,2.8,83.4,0,0,360,�k,2.6,25
2013/5/3,23:00:00,113,���쓌,0.7,-1.2,89.3,0,0,293,���k��,2.6,33
2013/5/3,0:00:00,270,��,1.5,-2.2,94.2,0,0,270,��,2.7,15
2013/5/4,1:00:00,293,���k��,1.3,-1.3,95.7,0,0,248,���쐼,3.1,14
2013/5/4,2:00:00,270,��,2.2,-0.7,91.9,0,0,315,�k��,3.5,47
2013/5/4,3:00:00,293,���k��,1.8,-0.6,91.1,0,0,225,�쐼,4.5,3
2013/5/4,4:00:00,270,��,1.6,-1.3,94.4,0,0,270,��,3.3,35
2013/5/4,5:00:00,270,��,2,-0.7,93.2,0,0.02,293,���k��,3.9,13
2013/5/4,6:00:00,293,���k��,1,1.1,92.5,0,0.09,270,��,3.3,10
2013/5/4,7:00:00,248,���쐼,0.3,7.3,71,0,0.26,248,���쐼,2.9,21
2013/5/4,8:00:00,180,��,1.1,10.6,53,0,0.4,248,���쐼,3.6,2
2013/5/4,9:00:00,113,���쓌,3.3,9.1,56.6,0,0.58,135,�쓌,4.5,55
2013/5/4,10:00:00,68,���k��,4.7,9.1,56.2,0,0.79,68,���k��,7.4,47
2013/5/4,11:00:00,113,���쓌,3,10.4,51.8,0,0.51,113,���쓌,5.9,13
2013/5/4,12:00:00,135,�쓌,1.5,12.1,49.7,0,0.46,113,���쓌,3.5,17
2013/5/4,13:00:00,135,�쓌,2.2,12.2,48.8,0,0.36,135,�쓌,3.3,57
2013/5/4,14:00:00,135,�쓌,2.5,11.9,52,0,0.36,135,�쓌,4.8,24
2013/5/4,15:00:00,158,��쓌,1.9,12.6,52.9,0,0.3,158,��쓌,4.6,36
2013/5/4,16:00:00,248,���쐼,4.5,12,54,0,0.21,248,���쐼,7,58
2013/5/4,17:00:00,248,���쐼,3.8,11.5,58,0,0.1,270,��,7.4,29
2013/5/4,18:00:00,315,�k��,2.4,10.8,55.6,0,0.05,248,���쐼,6.4,3
2013/5/4,19:00:00,315,�k��,2.5,9.5,62.4,0,0.01,338,�k�k��,4.5,21
2013/5/4,20:00:00,45,�k��,4.2,4.7,81.9,0,0,68,���k��,9,27
2013/5/4,21:00:00,45,�k��,4.9,4.5,82.7,0,0,45,�k��,7.7,26
2013/5/4,22:00:00,45,�k��,3.6,4.2,85.1,0,0,45,�k��,7.3,10
2013/5/4,23:00:00,225,�쐼,1.1,3.8,88.5,0,0,45,�k��,4.3,4
2013/5/4,0:00:00,270,��,1.1,0.6,94.8,0,0,225,�쐼,2.5,9
2013/5/5,1:00:00,315,�k��,1.3,0.3,98,0,0,270,��,2,44
2013/5/5,2:00:00,270,��,1.5,-1.1,98.3,0,0,270,��,2.6,41
2013/5/5,3:00:00,270,��,2.6,-0.4,99.8,0,0,293,���k��,3.3,54
2013/5/5,4:00:00,270,��,2.1,-1.8,99.5,0,0,315,�k��,2.6,0
2013/5/5,5:00:00,293,���k��,1,-0.7,99.8,0,0.02,270,��,2.5,3
2013/5/5,6:00:00,270,��,0.8,2.1,95.7,0,0.13,23,�k�k��,3.5,5
2013/5/5,7:00:00,270,��,0.3,4.1,89.4,0,0.17,248,���쐼,1.4,29
2013/5/5,8:00:00,180,��,2.5,6.5,69.8,0,0.42,180,��,4.5,49
2013/5/5,9:00:00,158,��쓌,3.6,7.1,67.2,0,0.75,135,�쓌,6.4,20
2013/5/5,10:00:00,158,��쓌,5.1,6.9,64.5,0,0.91,158,��쓌,8.4,55
2013/5/5,11:00:00,158,��쓌,4.3,6.8,68,0,0.94,180,��,9.7,28
2013/5/5,12:00:00,135,�쓌,5.3,6.3,67.7,0,0.96,135,�쓌,8.7,56
2013/5/5,13:00:00,135,�쓌,4.1,6.5,70.7,0,0.96,158,��쓌,8.4,2
2013/5/5,14:00:00,135,�쓌,3.1,6.5,78.5,0,0.64,135,�쓌,7.2,5
2013/5/5,15:00:00,135,�쓌,2.4,5.8,80.5,0,0.6,158,��쓌,5.1,0
2013/5/5,16:00:00,68,���k��,3.5,6.1,81.6,0,0.46,90,��,5.1,53
2013/5/5,17:00:00,45,�k��,3.4,5.6,82.4,0,0.28,68,���k��,5.7,11
2013/5/5,18:00:00,68,���k��,3.2,4.4,89.9,0,0.1,68,���k��,5.2,1
2013/5/5,19:00:00,45,�k��,2.7,3.4,93.9,0,0.01,68,���k��,4.2,37
2013/5/5,20:00:00,23,�k�k��,1.9,3.7,92.7,0,0,45,�k��,4.1,15
2013/5/5,21:00:00,23,�k�k��,2,3.8,91.8,0,0,23,�k�k��,3.5,40
2013/5/5,22:00:00,23,�k�k��,1.6,3.6,94.8,0,0,23,�k�k��,3,6
2013/5/5,23:00:00,315,�k��,0.4,3.6,95.6,0.5,0,23,�k�k��,2,19
2013/5/5,0:00:00,23,�k�k��,1.1,3.4,97.3,0.5,0,360,�k,2.6,24
2013/5/6,1:00:00,338,�k�k��,0.7,3.4,95.4,0.5,0,360,�k,3,10
2013/5/6,2:00:00,315,�k��,1,3.4,96.1,0,0,293,���k��,1.5,59
2013/5/6,3:00:00,315,�k��,0.7,3.6,95.9,0.5,0,315,�k��,2.2,8
2013/5/6,4:00:00,360,�k,2.1,3.1,94.4,0.5,0,23,�k�k��,3.5,57
2013/5/6,5:00:00,338,�k�k��,1.3,2.3,95.7,0.5,0.01,360,�k,2.8,1
2013/5/6,6:00:00,338,�k�k��,1.3,2.1,96.5,0.5,0.01,315,�k��,2.3,28
2013/5/6,7:00:00,338,�k�k��,1.2,1.6,98.1,1,0.03,338,�k�k��,2.5,51
2013/5/6,8:00:00,270,��,2.5,0.8,98.7,2,0.03,293,���k��,3.9,54
2013/5/6,9:00:00,338,�k�k��,2.2,0.5,100,2.5,0.04,315,�k��,4.8,48
2013/5/6,10:00:00,248,���쐼,1.7,0.7,100,3,0.13,270,��,4.5,33
2013/5/6,11:00:00,270,��,1.9,1.2,99.6,1.5,0.17,203,��쐼,3.7,59
2013/5/6,12:00:00,315,�k��,1.9,2.5,98.7,1.5,0.22,135,�쓌,4.3,0
2013/5/6,13:00:00,293,���k��,1.8,2.8,96.5,0,0.19,315,�k��,4.5,15
2013/5/6,14:00:00,248,���쐼,2.5,2.2,96.9,2,0.12,113,���쓌,4.2,22
2013/5/6,15:00:00,270,��,3.7,1.8,97.9,1.5,0.08,270,��,5.6,54
2013/5/6,16:00:00,293,���k��,2.5,1.5,98.3,2,0.05,293,���k��,5.7,18
2013/5/6,17:00:00,270,��,2.8,0.7,99.4,2.5,0.02,158,��쓌,4.2,55
2013/5/6,18:00:00,248,���쐼,3.6,0.8,100,2.5,0.01,293,���k��,5.8,54
2013/5/6,19:00:00,360,�k,0.9,0.9,99.7,1,0.01,270,��,3.8,2
2013/5/6,20:00:00,315,�k��,0.8,0.4,99.8,1,0,338,�k�k��,2.4,2
2013/5/6,21:00:00,315,�k��,0.8,0.4,100,1,0,293,���k��,2,14
2013/5/6,22:00:00,315,�k��,1.2,0.5,100,1,0,315,�k��,2,16
2013/5/6,23:00:00,360,�k,2.5,1.2,98.4,0,0,45,�k��,6.9,35
2013/5/6,0:00:00,338,�k�k��,1.7,1.2,91.7,0,0,360,�k,3.9,7
2013/5/7,1:00:00,338,�k�k��,2.8,1,89.7,0,0,338,�k�k��,6,41
2013/5/7,2:00:00,338,�k�k��,2.5,0.8,88.5,0,0,360,�k,6.3,27
2013/5/7,3:00:00,315,�k��,3.1,0.7,87.1,0,0,315,�k��,6.1,39
2013/5/7,4:00:00,338,�k�k��,3.8,0.9,85.1,0,0,338,�k�k��,7.2,56
2013/5/7,5:00:00,338,�k�k��,3.4,0.9,85.6,0,0.02,360,�k,7.3,54
2013/5/7,6:00:00,338,�k�k��,4.6,1.4,84,0,0.06,360,�k,9,59
2013/5/7,7:00:00,338,�k�k��,3.8,1.9,84.4,0,0.12,360,�k,9.6,36
2013/5/7,8:00:00,315,�k��,3.9,2.6,80.8,0,0.24,338,�k�k��,7.2,8
2013/5/7,9:00:00,338,�k�k��,4.4,4.5,75.7,0,0.47,338,�k�k��,7.8,18
2013/5/7,10:00:00,360,�k,6.8,6.6,68.1,0,0.86,23,�k�k��,13,49
2013/5/7,11:00:00,23,�k�k��,8,6.8,59.2,0,0.96,23,�k�k��,14,8
2013/5/7,12:00:00,23,�k�k��,8.6,7,56.2,0,1.01,23,�k�k��,14.7,50
2013/5/7,13:00:00,23,�k�k��,8.5,6.3,52.6,0,1.03,360,�k,14.6,38
2013/5/7,14:00:00,23,�k�k��,8.9,6,57.5,0,0.87,23,�k�k��,17.2,45
2013/5/7,15:00:00,360,�k,7.9,5.2,51.5,0,0.79,45,�k��,16.5,31
2013/5/7,16:00:00,23,�k�k��,7.9,5.2,54,0,0.55,23,�k�k��,17,39
2013/5/7,17:00:00,23,�k�k��,8.1,4.3,56,0,0.42,45,�k��,15.2,25
2013/5/7,18:00:00,23,�k�k��,6,3.6,60.4,0,0.19,23,�k�k��,13.2,36
2013/5/7,19:00:00,338,�k�k��,3.6,2.3,68.3,0,0.02,23,�k�k��,13.9,19
2013/5/7,20:00:00,360,�k,3.5,1.3,70.7,0,0,23,�k�k��,7.7,8
2013/5/7,21:00:00,338,�k�k��,2.6,1,71.3,0,0,360,�k,8.3,0
2013/5/7,22:00:00,315,�k��,2.5,0.8,73.9,0,0,23,�k�k��,5.9,0
2013/5/7,23:00:00,315,�k��,2.5,1.3,72.4,0,0,293,���k��,6.5,19
2013/5/7,0:00:00,315,�k��,4.2,2,67.9,0,0,270,��,8,58
2013/5/8,1:00:00,293,���k��,5.1,2.9,63.6,0,0,338,�k�k��,11.7,29
2013/5/8,2:00:00,315,�k��,5,2.9,63.4,0,0,113,���쓌,10.3,26
2013/5/8,3:00:00,315,�k��,3.6,2.9,62.4,0,0,338,�k�k��,10,17
2013/5/8,4:00:00,315,�k��,2.7,3.8,59.9,0,0,270,��,7.4,41
2013/5/8,5:00:00,315,�k��,3.8,3.6,59.7,0,0.02,315,�k��,6.5,50
2013/5/8,6:00:00,293,���k��,3.8,4.6,61.2,0,0.09,293,���k��,7,28
2013/5/8,7:00:00,315,�k��,3.4,6.5,59.6,0,0.19,315,�k��,6.1,58
2013/5/8,8:00:00,338,�k�k��,3.3,7.7,58.4,0,0.23,23,�k�k��,9.1,26
2013/5/8,9:00:00,338,�k�k��,4.2,9.9,55.8,0,0.44,360,�k,9.7,48
2013/5/8,10:00:00,360,�k,5.9,10.1,55.1,0,0.28,23,�k�k��,10.7,57
2013/5/8,11:00:00,360,�k,4.9,9.4,60.9,0,0.18,23,�k�k��,9.5,35
2013/5/8,12:00:00,360,�k,5.4,9.9,60.6,0,0.16,360,�k,10,14
2013/5/8,13:00:00,315,�k��,5.2,11.8,55.2,0,0.45,338,�k�k��,10,52
2013/5/8,14:00:00,293,���k��,4.3,13.8,53.6,0,0.9,203,��쐼,10,3
2013/5/8,15:00:00,360,�k,4.9,15.1,47.8,0,0.73,315,�k��,8.4,57
2013/5/8,16:00:00,23,�k�k��,6.5,14.3,51,0,0.54,23,�k�k��,9.3,51
2013/5/8,17:00:00,360,�k,5.1,13.4,55.2,0,0.36,315,�k��,9.2,50
2013/5/8,18:00:00,360,�k,4.6,10.8,63.8,0,0.11,23,�k�k��,10.6,14
2013/5/8,19:00:00,293,���k��,2.8,9.7,68.1,0,0.01,23,�k�k��,9.5,1
2013/5/8,20:00:00,338,�k�k��,1.8,9.3,69.3,0,0,315,�k��,5.4,5
2013/5/8,21:00:00,315,�k��,1.7,8.4,73.7,0,0,225,�쐼,5.6,18
2013/5/8,22:00:00,270,��,2,6.9,80.8,0,0,90,��,5.2,7
2013/5/8,23:00:00,248,���쐼,1.8,5.8,86,0,0,248,���쐼,3,48
2013/5/8,0:00:00,270,��,1.8,5.1,87,0,0,270,��,3.7,5
2013/5/9,1:00:00,270,��,1.2,3.8,89.6,0,0,113,���쓌,2.6,15
2013/5/9,2:00:00,293,���k��,1.1,4.4,89.7,0,0,270,��,3.1,21
2013/5/9,3:00:00,270,��,1.6,3.5,96.2,0,0,338,�k�k��,2.3,33
2013/5/9,4:00:00,270,��,2.6,3.3,95.8,0,0,293,���k��,3.8,11
2013/5/9,5:00:00,293,���k��,1.1,3.1,92.8,0,0.02,45,�k��,3.3,0
2013/5/9,6:00:00,293,���k��,0.6,5.5,87.2,0,0.13,270,��,2,6
2013/5/9,7:00:00,293,�É�,0.1,8.3,74.4,0,0.33,338,�k�k��,2.1,54
2013/5/9,8:00:00,248,���쐼,1,11.4,63.9,0,0.49,270,��,3.5,32
2013/5/9,9:00:00,158,��쓌,3.9,11.2,62.8,0,0.68,180,��,5.1,51
2013/5/9,10:00:00,135,�쓌,2.6,8.8,68.1,0,0.75,158,��쓌,6.1,25
2013/5/9,11:00:00,135,�쓌,3.3,9.4,64,0,0.8,135,�쓌,5,56
2013/5/9,12:00:00,158,��쓌,3.2,9.1,68,0,0.83,158,��쓌,5.3,49
2013/5/9,13:00:00,158,��쓌,2.9,10,68.9,0,0.77,203,��쐼,6.2,8
2013/5/9,14:00:00,135,�쓌,3.1,8.7,71,0,0.69,135,�쓌,5.8,40
2013/5/9,15:00:00,90,��,2.9,7.9,78.4,0,0.46,90,��,5,57
2013/5/9,16:00:00,113,���쓌,1.1,8.4,72.8,0,0.26,113,���쓌,3.7,1
2013/5/9,17:00:00,113,���쓌,3,6.9,79.1,0,0.16,113,���쓌,4.2,50
2013/5/9,18:00:00,135,�쓌,0.4,6.7,84.4,0,0.03,90,��,3.3,1
2013/5/9,19:00:00,23,�k�k��,0.3,7.3,82.6,0,0.01,248,���쐼,1.4,20
2013/5/9,20:00:00,315,�k��,1.5,8.8,77.3,0,0,23,�k�k��,3.3,54
2013/5/9,21:00:00,360,�k,3.4,9.7,64.1,0,0,338,�k�k��,6.5,51
2013/5/9,22:00:00,338,�k�k��,1.8,8.8,67.2,0,0,360,�k,6.7,11
2013/5/9,23:00:00,315,�k��,1,5.4,79.9,0,0,360,�k,4.5,10
2013/5/9,0:00:00,338,�k�k��,1.7,5.6,79.2,0,0,338,�k�k��,3.6,45
2013/5/10,1:00:00,338,�k�k��,1.3,3.9,84,0,0,293,���k��,2.5,47
2013/5/10,2:00:00,270,��,2.1,2.8,92.4,0,0,45,�k��,3.2,57
2013/5/10,3:00:00,293,���k��,1.8,3,86.8,0,0,248,���쐼,3.5,18
2013/5/10,4:00:00,293,���k��,1.7,3.7,87,0,0,270,��,4.1,27
2013/5/10,5:00:00,293,���k��,1.6,5.3,82,0,0.04,23,�k�k��,4.4,27
2013/5/10,6:00:00,338,�k�k��,2,7.9,73.9,0,0.18,338,�k�k��,3.7,40
2013/5/10,7:00:00,315,�k��,2.7,10.1,62.5,0,0.39,315,�k��,4.3,51
2013/5/10,8:00:00,270,��,2,11.8,60.8,0,0.6,23,�k�k��,4.5,8
2013/5/10,9:00:00,135,�쓌,3.2,8.7,68.9,0,0.76,135,�쓌,6.8,31
2013/5/10,10:00:00,113,���쓌,3.4,9.9,67.6,0,0.9,113,���쓌,5.7,40
2013/5/10,11:00:00,158,��쓌,3,9.6,62.9,0,1,113,���쓌,6.4,25
2013/5/10,12:00:00,158,��쓌,3.4,10.5,68.5,0,1.03,158,��쓌,6.1,55
2013/5/10,13:00:00,180,��,4.5,9.8,62.5,0,0.98,180,��,6.6,54
2013/5/10,14:00:00,180,��,4.5,9.2,67.4,0,0.88,158,��쓌,6.9,53
2013/5/10,15:00:00,180,��,4.3,8.6,68.2,0,0.69,180,��,6.9,58
2013/5/10,16:00:00,180,��,3.4,9.3,68.1,0,0.48,180,��,6.7,29
2013/5/10,17:00:00,180,��,2.9,8.6,72.2,0,0.36,203,��쐼,6.5,13
2013/5/10,18:00:00,158,��쓌,1.6,6.8,78.9,0,0.14,180,��,3.9,25
2013/5/10,19:00:00,113,���쓌,1,4.3,89.7,0,0.02,158,��쓌,2.6,3
2013/5/10,20:00:00,68,���k��,1.1,3.6,96.5,0,0,45,�k��,1.9,23
2013/5/10,21:00:00,68,���k��,0.6,2.9,97.9,0,0,90,��,2,7
2013/5/10,22:00:00,45,�k��,0.8,2.3,98.6,0,0,45,�k��,1.6,40
2013/5/10,23:00:00,45,�k��,0.9,3.5,99.3,0,0,45,�k��,2.5,34
2013/5/10,0:00:00,360,�É�,0.2,4,97.4,0,0,23,�k�k��,2.3,8
2013/5/11,1:00:00,23,�k�k��,0.5,4.6,97,0,0,23,�k�k��,8.3,46
2013/5/11,2:00:00,23,�k�k��,0.4,4.7,96.9,0,0,338,�k�k��,3.1,19
2013/5/11,3:00:00,45,�k��,1.1,4.9,98.6,0,0,23,�k�k��,7.2,3
2013/5/11,4:00:00,68,���k��,2.3,4.6,99,0,0,68,���k��,2.9,43
2013/5/11,5:00:00,45,�k��,2.3,4.8,99.2,0,0.02,45,�k��,3.1,59
2013/5/11,6:00:00,68,���k��,2.9,5,99.3,0,0.05,45,�k��,4.3,55
2013/5/11,7:00:00,90,��,2.6,5.1,99.4,0,0.07,45,�k��,4.9,4
2013/5/11,8:00:00,90,��,3.4,4.6,99.6,0,0.12,68,���k��,4.5,58
2013/5/11,9:00:00,90,��,2.5,4.5,99.6,0,0.17,90,��,4.3,1
2013/5/11,10:00:00,90,��,3,4.6,99.5,0,0.2,90,��,4.1,55
2013/5/11,11:00:00,90,��,3,6.3,99.1,0,0.3,90,��,4.7,7
2013/5/11,12:00:00,90,��,2.4,5.1,95.8,0,0.3,90,��,5.3,0
2013/5/11,13:00:00,90,��,3.3,5.7,93.2,0,0.43,113,���쓌,4.8,10
2013/5/11,14:00:00,90,��,3.2,4.7,92.2,0,0.31,113,���쓌,4.9,9
2013/5/11,15:00:00,90,��,2.5,4.9,89.8,0,0.22,90,��,5.2,29
2013/5/11,16:00:00,90,��,2.2,4.9,89.2,0,0.15,90,��,4.3,0
2013/5/11,17:00:00,68,���k��,2.7,4.5,91.1,0,0.09,90,��,4,47
2013/5/11,18:00:00,68,���k��,2.8,4.2,93.9,0,0.03,68,���k��,3.9,59
2013/5/11,19:00:00,68,���k��,2.9,3.9,96.2,0,0.01,68,���k��,4.8,7
2013/5/11,20:00:00,45,�k��,2.5,3.6,97.2,0,0,45,�k��,5.1,9
2013/5/11,21:00:00,45,�k��,2.7,3,98.3,0.5,0,68,���k��,4.7,23
2013/5/11,22:00:00,68,���k��,3.4,2.8,98.6,1,0,68,���k��,5.8,56
2013/5/11,23:00:00,45,�k��,3.6,2.5,98.6,2.5,0,45,�k��,6.3,59
2013/5/11,0:00:00,45,�k��,3.4,2.5,98.6,3,0,45,�k��,6,2
2013/5/12,1:00:00,68,���k��,2.8,2.4,98.8,3,0,45,�k��,5.1,49
2013/5/12,2:00:00,23,�k�k��,0.9,2.5,99.1,4,0,45,�k��,4.4,15
2013/5/12,3:00:00,23,�k�k��,0.4,2.4,99.4,3,0,360,�k,3,32
2013/5/12,4:00:00,360,�k,2,2.2,98.8,3.5,0,23,�k�k��,5.5,26
2013/5/12,5:00:00,23,�k�k��,1.8,1.4,99.2,2.5,0.01,45,�k��,3.6,2
2013/5/12,6:00:00,293,���k��,2,0.9,99.3,1,0.02,248,���쐼,3.4,56
2013/5/12,7:00:00,315,�k��,2,1.9,98.8,0,0.09,338,�k�k��,4.9,40
2013/5/12,8:00:00,360,�k,1.8,3.4,94.4,0.5,0.15,23,�k�k��,5.6,29
2013/5/12,9:00:00,360,�k,2.5,3.9,95.2,0,0.2,23,�k�k��,4.2,39
2013/5/12,10:00:00,23,�k�k��,3,5.1,92.8,0,0.32,23,�k�k��,5.7,52
2013/5/12,11:00:00,68,���k��,3.4,5.8,88.7,0,0.5,90,��,5.3,57
2013/5/12,12:00:00,90,��,3.8,7.5,89,0,0.39,90,��,6.1,14
2013/5/12,13:00:00,90,��,4,6.2,86.7,0,0.6,68,���k��,5.6,5
2013/5/12,14:00:00,90,��,4.1,5.6,85.4,0,0.43,90,��,6.2,21
2013/5/12,15:00:00,90,��,2.6,5.6,85.3,0,0.27,68,���k��,5.9,8
2013/5/12,16:00:00,113,���쓌,2.1,5.2,83.8,0,0.3,90,��,4.4,25
2013/5/12,17:00:00,158,��쓌,2.1,5,80.6,0,0.32,135,�쓌,3.6,40
2013/5/12,18:00:00,180,��,1.6,4.5,86,0,0.11,135,�쓌,3.8,11
2013/5/12,19:00:00,203,��쐼,0.8,4.5,87.1,0,0.01,180,��,2.4,1
2013/5/12,20:00:00,225,�쐼,1,4.6,88.6,0,0,225,�쐼,1.8,56
2013/5/12,21:00:00,203,��쐼,0.5,4.6,88.8,0,0,225,�쐼,2,11
2013/5/12,22:00:00,203,��쐼,0.8,4.6,89.9,0,0,158,��쓌,2,18
2013/5/12,23:00:00,135,�쓌,0.3,4.7,90,0,0,225,�쐼,1.7,21
2013/5/12,0:00:00,203,��쐼,0.8,4.7,90.3,0,0,135,�쓌,2.2,43
2013/5/13,1:00:00,135,�쓌,1.4,4.7,90.1,0,0,135,�쓌,2.3,51
2013/5/13,2:00:00,180,��,0.9,4.5,93.3,0,0,180,��,2.5,0
2013/5/13,3:00:00,158,��쓌,0.7,4.5,92.9,0,0,203,��쐼,1.8,29
2013/5/13,4:00:00,113,���쓌,1.5,4.4,93.5,0,0,135,�쓌,2.4,0
2013/5/13,5:00:00,113,���쓌,1.9,4.2,96,0,0.01,113,���쓌,3,31
2013/5/13,6:00:00,158,��쓌,1.4,4.5,95.1,0,0.06,158,��쓌,3.6,46
2013/5/13,7:00:00,135,�쓌,2.5,4.4,94.5,0,0.09,158,��쓌,4.5,29
2013/5/13,8:00:00,180,��,2.4,4.9,91.9,0,0.15,180,��,5,29
2013/5/13,9:00:00,158,��쓌,2.4,5.6,88.6,0,0.25,158,��쓌,4.6,47
2013/5/13,10:00:00,158,��쓌,2.7,5.5,88.4,0,0.25,180,��,5.1,11
2013/5/13,11:00:00,158,��쓌,2.8,5.6,85,0,0.36,158,��쓌,5.7,33
2013/5/13,12:00:00,158,��쓌,2.8,5.5,89,0,0.34,158,��쓌,4.8,47
2013/5/13,13:00:00,158,��쓌,2.4,5,92.2,0,0.25,158,��쓌,4.6,1
2013/5/13,14:00:00,135,�쓌,2.5,5.6,89.3,0,0.35,113,���쓌,4.2,51
2013/5/13,15:00:00,135,�쓌,2.6,5.2,87.9,0,0.29,135,�쓌,4.2,16
2013/5/13,16:00:00,135,�쓌,2.4,5.1,88.4,0,0.17,113,���쓌,4.8,3
2013/5/13,17:00:00,90,��,1.6,4.9,91.5,0,0.07,113,���쓌,3.8,12
2013/5/13,18:00:00,113,���쓌,1.3,4.4,96.6,0,0.02,90,��,2.9,16
2013/5/13,19:00:00,135,�쓌,1,4.2,98.4,0,0.01,113,���쓌,2.2,37
2013/5/13,20:00:00,135,�쓌,0.6,4.3,98.9,0,0,135,�쓌,2.8,26
2013/5/13,21:00:00,45,�k��,0.4,4.4,99.1,0,0,135,�쓌,1.4,7
2013/5/13,22:00:00,23,�k�k��,1,4.5,99.3,0,0,23,�k�k��,1.6,57
2013/5/13,23:00:00,360,�k,0.8,4.6,99.5,0,0,23,�k�k��,2.2,38
2013/5/13,0:00:00,360,�k,0.3,4.6,99.5,0,0,68,���k��,2.1,35
2013/5/14,1:00:00,360,�k,1.1,4.5,99.6,0,0,45,�k��,2.7,32
2013/5/14,2:00:00,45,�k��,1.3,4.5,99.7,0.5,0,360,�k,2.1,23
2013/5/14,3:00:00,338,�k�k��,0.8,4.5,99.6,0,0,23,�k�k��,2.2,10
2013/5/14,4:00:00,360,�k,0.6,4.6,99.6,0,0,135,�쓌,1.9,17
2013/5/14,5:00:00,23,�k�k��,0.7,5,99.3,0,0.01,338,�k�k��,1.9,21
2013/5/14,6:00:00,338,�k�k��,0.9,5.4,97.9,0,0.04,360,�k,2.1,48
2013/5/14,7:00:00,68,���k��,1.8,5.7,96.2,0,0.12,45,�k��,3.2,51
2013/5/14,8:00:00,68,���k��,3.6,5.5,98.6,0,0.13,68,���k��,5.7,38
2013/5/14,9:00:00,68,���k��,3.6,6,98.1,0,0.2,68,���k��,5.8,19
2013/5/14,10:00:00,90,��,3.7,6.6,94.7,0,0.34,90,��,5.4,16
2013/5/14,11:00:00,90,��,3.6,6.7,92.4,0,0.39,90,��,4.7,30
2013/5/14,12:00:00,90,��,2.6,8.6,84.9,0,0.6,90,��,4.7,21
2013/5/14,13:00:00,113,���쓌,2.3,6.7,88.7,0,0.43,90,��,4.3,34
2013/5/14,14:00:00,158,��쓌,1.8,5.6,93.9,0,0.15,113,���쓌,3.4,1
2013/5/14,15:00:00,180,��,1,5.6,91.6,0,0.18,135,�쓌,2.5,19
2013/5/14,16:00:00,135,�쓌,1.4,6.2,89.6,0,0.13,158,��쓌,2.3,54
2013/5/14,17:00:00,135,�쓌,0.7,6.2,90.3,0,0.1,135,�쓌,2.1,0
2013/5/14,18:00:00,113,���쓌,1.5,5.6,87.7,0,0.07,113,���쓌,2.1,56
2013/5/14,19:00:00,90,��,1.3,5.4,90.3,0,0.01,113,���쓌,1.8,0
2013/5/14,20:00:00,90,��,0.9,5.3,91.3,0,0,68,���k��,1.9,2
2013/5/14,21:00:00,90,��,1.2,5.1,92.7,0,0,68,���k��,2.2,38
2013/5/14,22:00:00,90,��,1.7,4.5,94.9,0,0,90,��,3.1,29
2013/5/14,23:00:00,113,���쓌,1.2,4.4,95.7,0,0,90,��,2.6,10
2013/5/14,0:00:00,90,��,1,4.5,97.1,0,0,90,��,2.8,7
2013/5/15,1:00:00,45,�k��,1,4.3,97.1,0,0,68,���k��,2.2,36
2013/5/15,2:00:00,68,���k��,0.9,4.2,98.9,0,0,45,�k��,1.6,0
2013/5/15,3:00:00,68,���k��,1.6,4.3,99.6,0,0,68,���k��,2.3,56
2013/5/15,4:00:00,90,��,1,4.5,99.8,0,0,360,�k,2.3,39
2013/5/15,5:00:00,113,���쓌,2.1,4.4,100,0,0.01,113,���쓌,3,59
2013/5/15,6:00:00,90,��,1.2,4.5,100,0,0.03,90,��,5,11
2013/5/15,7:00:00,68,���k��,1.8,4.6,100,0,0.07,68,���k��,3.3,33
2013/5/15,8:00:00,68,���k��,2.5,5.2,100,0,0.12,68,���k��,4.3,59
2013/5/15,9:00:00,113,���쓌,2.3,5.3,100,0,0.13,68,���k��,5.3,3
2013/5/15,10:00:00,90,��,4.5,4.8,99.9,0,0.22,90,��,5.7,56
2013/5/15,11:00:00,113,���쓌,2.2,5,99.8,0,0.26,113,���쓌,5.5,2
2013/5/15,12:00:00,90,��,2.9,5.6,99.6,0,0.2,90,��,4.2,50
2013/5/15,13:00:00,68,���k��,2.2,5,99.6,0,0.12,68,���k��,3.9,10
2013/5/15,14:00:00,113,���쓌,3.8,5.5,99.9,0.5,0.12,90,��,5.5,59
2013/5/15,15:00:00,90,��,3.5,5.3,99.8,0,0.15,90,��,5.7,0
2013/5/15,16:00:00,68,���k��,1.8,5.1,99.8,0,0.1,90,��,4.2,19
2013/5/15,17:00:00,90,��,2.7,5,99.9,0,0.05,68,���k��,3.9,39
2013/5/15,18:00:00,45,�k��,1.8,4.7,100,0,0.02,68,���k��,3.5,17
2013/5/15,19:00:00,68,���k��,3,4.6,100,0,0.01,45,�k��,4.7,49
2013/5/15,20:00:00,23,�k�k��,2.1,4.6,100,0,0,45,�k��,5.2,13
2013/5/15,21:00:00,315,�k��,1.5,4.8,100,0.5,0,23,�k�k��,2.5,0
2013/5/15,22:00:00,68,���k��,2.2,5,100,0,0,68,���k��,3.4,54
2013/5/15,23:00:00,23,�k�k��,1,5.2,100,1.5,0,338,�k�k��,2.6,3
2013/5/15,0:00:00,23,�k�k��,0.4,5.4,100,1,0,23,�k�k��,2.6,52
2013/5/16,1:00:00,338,�k�k��,0.9,5.5,100,0.5,0,360,�k,2.3,31
2013/5/16,2:00:00,360,�k,1.2,5.6,99.9,0.5,0,338,�k�k��,2.9,29
2013/5/16,3:00:00,315,�k��,1.5,5.5,99.9,0.5,0,315,�k��,2.7,59
2013/5/16,4:00:00,293,���k��,1.2,5.6,99.9,0.5,0,338,�k�k��,3.1,17
2013/5/16,5:00:00,315,�k��,2,5.7,99.9,0,0.01,315,�k��,3.1,46
2013/5/16,6:00:00,315,�k��,2.3,6,99.8,0,0.04,315,�k��,3.9,54
2013/5/16,7:00:00,338,�k�k��,1.4,6.9,99.3,0,0.09,315,�k��,3.6,15
2013/5/16,8:00:00,338,�k�k��,2.3,8.1,92.6,0,0.24,315,�k��,4.1,19
2013/5/16,9:00:00,23,�k�k��,3.1,9.1,87.5,0,0.25,360,�k,5.6,44
2013/5/16,10:00:00,90,��,2.9,8.8,91.4,0,0.45,23,�k�k��,6.4,7
2013/5/16,11:00:00,90,��,4.5,10,86.6,0,0.63,90,��,6.6,58
2013/5/16,12:00:00,68,���k��,3.9,10.4,79.9,0,0.6,68,���k��,6.5,11
2013/5/16,13:00:00,90,��,4.5,10.1,83.2,0,0.97,90,��,6.5,37
2013/5/16,14:00:00,68,���k��,4.3,9.1,80.6,0,0.75,68,���k��,6.3,59
2013/5/16,15:00:00,90,��,3.9,10.4,80.1,0,0.45,68,���k��,6.4,11
2013/5/16,16:00:00,90,��,3.6,10.1,79.5,0,0.58,90,��,5.4,30
2013/5/16,17:00:00,135,�쓌,2.3,8.3,82.8,0,0.37,90,��,4.2,0
2013/5/16,18:00:00,135,�쓌,0.9,6.2,90.4,0,0.12,113,���쓌,4,22
2013/5/16,19:00:00,293,���k��,0.6,5.7,95.9,0,0.01,135,�쓌,1.4,0
2013/5/16,20:00:00,293,���k��,1.2,7,91.4,0,0,293,���k��,2.5,39
2013/5/16,21:00:00,293,���k��,1.4,7,92.4,0,0,293,���k��,3.4,31
2013/5/16,22:00:00,293,���k��,0.8,7.2,91.3,0,0,270,��,3.1,43
2013/5/16,23:00:00,23,�k�k��,1.3,5.7,96.2,0,0,23,�k�k��,1.8,49
2013/5/16,0:00:00,270,��,0.5,5.4,98.3,0,0,293,���k��,2,57
2013/5/17,1:00:00,315,�É�,0.1,6.1,98,0,0,338,�k�k��,4.1,56
2013/5/17,2:00:00,315,�k��,1.2,7.1,87,0,0,23,�k�k��,3.1,0
2013/5/17,3:00:00,315,�k��,2,7,84.6,0,0,338,�k�k��,3.2,51
2013/5/17,4:00:00,293,���k��,1.4,6.5,86.3,0,0,338,�k�k��,2.6,3
2013/5/17,5:00:00,360,�k,1.5,7.4,81,0,0.06,360,�k,3,55
2013/5/17,6:00:00,315,�k��,3.2,8.5,72.3,0,0.28,315,�k��,4.6,54